{"data":{"norad_id":58779,"intl_designator":"2024-011Q","name":"STARLINK-31142","alt_names":[],"object_type":"PAYLOAD","status":"ACTIVE","operator":null,"country":"US","launch_date":"2024-01-14","launch_site_code":"AFWTR","launch_vehicle":null,"mission":null,"orbit_class":"UNKNOWN","rcs_meters":null,"size_class":null,"mass_kg":null,"dimensions":null,"purposes":["comms"],"wikipedia_slug":null,"has_3d_model":false,"image_url":null,"decayed_at":null,"tle_current":{"epoch":"2026-05-25T00:24:48.288384Z","epoch_age_seconds":80410,"freshness":"FRESH","line1":"1 58779U 24011Q   26145.01722556  .00000554  00000+0  30828-4 0  9998","line2":"2 58779  53.1621  19.3281 0001229  93.6029 266.5113 15.30198771131958","mean_motion":15.30198771,"eccentricity":0.0001229,"inclination_deg":53.1621,"raan_deg":19.3281,"arg_perigee_deg":93.6029,"mean_anomaly_deg":266.5113,"bstar":3.0828e-5,"rev_number":13195,"period_min":94.105421288435,"perigee_km":474.37646157393,"apogee_km":476.06101641457,"semimajor_km":6853.3557389943,"source":"CELESTRAK","updated_at":"2026-05-25T13:38:18.747048Z"}}}